COSMOS 249 DEB, 15775

Orbit data source: Space-Track

COSMOS 249 DEB, 15775 is space debris in LEO originally from a launch on Sun, 20 Oct 1968 UTC launched from the Tyuratam Missile And Space Complex (TTMTR). Debris objects in space refer to the collection of defunct objects orbiting the Earth. Examples of debris include non-operational satellites, rocket bodies, and fragments generated from explosions, collisions, or faulty payload assembly.

Loading next visibility...
Identifier
15775, 1968-091DA
Orbit
LEO
Country
Flag of CISCIS
Related business
Manufacturer
Unknown
Mission
Spacecraft
Bus & Motor
Unknown
Mass
Unknown
Launch date (UTC)
1968-10-20 (58 years ago)
Launch vehicle
Unknown
Launch site
Tyuratam Missile And Space Complex (TTMTR)
Object type
Payload
Rocket body
Debris
Shape & HBR
Unknown shape, 1.1 m
Radar Cross Section
Medium (>0.1 m² and <1 m²)

Expand to show TLE details & history
Last TLE update: 1 day ago

TLE from 1 day ago
0 COSMOS 249 DEB
1 15775U 68091DA  26235.10531330  .00001293  00000-0  16282-2 0  9999
2 15775  62.2962 273.1245 0665354 342.1970  15.6678 12.99380031576280
Epoch: 2026-08-23T02:31Z
TLE epoch observation values (Epoch: 2026-08-23T02:31:39.069Z)
Latitude
0.00002°
Longitude
-96.19442°
Altitude
779.253 km
Speed
7.699 km/s
True Right ascension
18h 12m 29s
True Declination
0° 00' 00"
Sunlit
Object was in full shadow at epoch
Visualization orbit readout
Latitude
Unknown
Longitude
Unknown
Altitude
Unknown
Speed
Unknown
Apparent Right ascension
Unknown
Apparent Declination
Unknown
Sunlit
N/A
Visualization observer readout
Local Sidereal Time
03:31:45
Azimuth
Unknown
Elevation
Unknown
Doppler factor
Unknown
Orbital elements
Apogee altitude
1,771.945 km
Perigee altitude
755.065 km
Semi-major axis
7,641.642 km
Eccentricity
0.06654
Inclination
62.2962°
RAAN
273.1245°
Arg. of periapsis
342.197°
True anomaly
17.90481°
Mean anomaly
15.6678°
Eccentric anomaly
16.76758°
Mean motion
3.2491 °/min
Orbital period
110.8 mins
BSTAR
0.0016282
Loading maneuver chart data...
Computing Atmospheric mass density...
Loading historical data...
Loading historical data...
Loading historical data...
Loading historical data...
Loading historical data...
Loading historical data...
Loading historical data...

Documentation

Showing up to 5 results
|